Home   Weather   Lakewood   Past weeks

Flag for USA Past Weather in Lakewood, Colorado, USA — Yesterday and Last 2 Weeks

Now
51 °F

Passing clouds.


Feels Like: 50 °F
Forecast: 51 / 75 °F
Wind: 5 mph from South

Location: Centennial Airport

Current Time: May 25, 2017 at 6:44:51 am

Latest Report: May 25, 2017 at 5:53 am


Visibility: 10 mi

Pressure: 29.44 "Hg (24.04 "Hg at 1683m altitude)

Humidity: 61%

Dew Point: 38 °F

Location of LakewoodLocation

Past Weather in Lakewood — Graph

°F

Lakewood Temperature Yesterday

Maximum temperature yesterday: 81 °F (at 3:53 pm)
Minimum temperature yesterday: 40 °F (at 12:53 am)
Average temperature yesterday: 63 °F

High & Low Weather Summary for the Past Weeks

 TemperatureHumidityPressure
High82 °F (May 13, 3:53 pm)100% (May 10, 4:53 pm)30.25 "Hg (May 10, 4:53 pm)
Low31 °F (May 20, 5:53 am)10% (May 13, 5:53 pm)29.39 "Hg (May 17, 1:53 pm)
Average52 °F62%29.88 "Hg
* Reported May 10 4:53 am — May 25 4:53 am, Lakewood. Weather by CustomWeather, © 2017

Note: Actual official high and low records may vary slightly from our data, if they occured in-between our weather recording intervals... More about our weather records

Advertising

Lakewood Weather History for the Previous 24 Hours

Scroll right to see more
 ConditionsComfort  
Time TempWeatherWind HumidityBarometerVisibility
4:53 am
Thu, May 25
57 °FPassing clouds.9 mph46%29.43 "Hg10 mi
3:53 am58 °FPassing clouds.7 mph43%29.40 "Hg10 mi
2:53 am61 °FClear.6 mph35%29.40 "Hg10 mi
1:53 am63 °FPassing clouds.8 mph33%29.41 "Hg10 mi
12:53 am64 °FPassing clouds.9 mph29%29.42 "Hg10 mi
11:53 pm
Wed, May 24
64 °FClear.14 mph29%29.42 "Hg10 mi
10:53 pm60 °FClear.13 mph36%29.45 "Hg10 mi
9:53 pm63 °FClear.9 mph28%29.45 "Hg10 mi
8:53 pm67 °FPassing clouds.8 mph24%29.45 "Hg10 mi
7:53 pm76 °FPassing clouds.12 mph16%29.44 "Hg10 mi
6:53 pm78 °FPassing clouds.9 mph15%29.46 "Hg10 mi
5:53 pm80 °FPassing clouds.15 mph13%29.48 "Hg10 mi
4:53 pm80 °FPassing clouds.17 mph13%29.50 "Hg10 mi
3:53 pm81 °FPassing clouds.15 mph16%29.51 "Hg10 mi
2:53 pm79 °FPassing clouds.12 mph17%29.54 "Hg10 mi
1:53 pm78 °FPassing clouds.9 mph18%29.57 "Hg10 mi
12:53 pm77 °FPassing clouds.7 mph19%29.60 "Hg10 mi
11:53 am75 °FPassing clouds.12 mph20%29.62 "Hg10 mi
10:53 am72 °FPassing clouds.10 mph25%29.64 "Hg10 mi
9:53 am68 °FPassing clouds.8 mph30%29.67 "Hg10 mi
8:53 am64 °FPassing clouds.No wind34%29.69 "Hg10 mi
7:53 am57 °FPassing clouds.6 mph58%29.72 "Hg10 mi
6:53 am50 °FPassing clouds.7 mph57%29.75 "Hg10 mi
Weather by CustomWeather, © 2017

See weather overviewHow to use our weather pages